When you browse on this site, cookies collect data to enhance your experience and personalize the content and advertising you see.
Visit our Privacy Policy to learn more. By continuing to use the site, you agree to this use of cookies and data.
  • In Czech Republic
  • List of Countries
  • For 7 days
  • Water Temperature
  • Satellite Maps
  • Weather Map
  • Weather Widgets
  • user-avatar
    Login

    Hourly Weather Escuintla

    Today, 16 December, Sunday

    Time Temperature Precipitation Wind Pressure Humidity
    00:00 +22°C° 0 mm 3 mps 732 mmHg 65%
    01:00 +22°C° 0 mm 3 mps 732 mmHg 65%
    02:00 +23°C° 0 mm 2 mps 732 mmHg 65%
    03:00 +23°C° 0 mm 2 mps 732 mmHg 65%
    04:00 +23°C° 0 mm 2 mps 732 mmHg 65%
    05:00 +21°C° 0 mm 2 mps 732 mmHg 65%
    06:00 +21°C° 0 mm 2 mps 732 mmHg 65%
    07:00 +24°C° 0 mm 2 mps 732 mmHg 60%
    08:00 +26°C° 0 mm 2 mps 733 mmHg 55%
    09:00 +28°C° 0 mm 2 mps 733 mmHg 50%
    10:00 +30°C° 0 mm 2 mps 733 mmHg 46%
    11:00 +32°C° 0 mm 2 mps 733 mmHg 42%
    12:00 +35°C° 0 mm 2 mps 732 mmHg 37%
    13:00 +34°C° 0 mm 2 mps 732 mmHg 40%
    14:00 +34°C° 0 mm 3 mps 731 mmHg 43%
    15:00 +33°C° 0 mm 3 mps 730 mmHg 46%
    16:00 +30°C° 0 mm 3 mps 730 mmHg 55%
    17:00 +28°C° 0 mm 2 mps 730 mmHg 64%
    18:00 +26°C° 0 mm 2 mps 731 mmHg 74%
    19:00 +25°C° 0 mm 2 mps 731 mmHg 72%
    20:00 +25°C° 0 mm 2 mps 732 mmHg 71%
    21:00 +24°C° 0 mm 2 mps 732 mmHg 70%
    22:00 +24°C° 0 mm 2 mps 732 mmHg 69%
    23:00 +24°C° 0 mm 2 mps 732 mmHg 68%

    Tomorrow, 17 December, Monday

    Time Temperature Precipitation Wind Pressure Humidity
    00:00 +23°C° 0 mm 2 mps 732 mmHg 66%
    01:00 +23°C° 0 mm 2 mps 731 mmHg 66%
    02:00 +23°C° 0 mm 2 mps 731 mmHg 65%
    03:00 +23°C° 0 mm 2 mps 731 mmHg 65%
    04:00 +23°C° 0 mm 2 mps 731 mmHg 65%
    05:00 +23°C° 0 mm 2 mps 731 mmHg 65%
    06:00 +23°C° 0 mm 2 mps 731 mmHg 65%
    07:00 +25°C° 0 mm 2 mps 732 mmHg 59%
    08:00 +27°C° 0 mm 2 mps 732 mmHg 54%
    09:00 +29°C° 0 mm 2 mps 733 mmHg 48%
    10:00 +30°C° 0 mm 2 mps 733 mmHg 44%
    11:00 +32°C° 0 mm 2 mps 732 mmHg 40%
    12:00 +35°C° 0 mm 2 mps 732 mmHg 36%
    13:00 +34°C° 0 mm 2 mps 731 mmHg 38%
    14:00 +34°C° 0 mm 3 mps 730 mmHg 40%
    15:00 +34°C° 0 mm 3 mps 729 mmHg 42%
    16:00 +31°C° 0 mm 2 mps 730 mmHg 52%
    17:00 +28°C° 0 mm 2 mps 730 mmHg 62%
    18:00 +26°C° 0 mm 2 mps 730 mmHg 72%
    19:00 +26°C° 0 mm 2 mps 730 mmHg 72%
    20:00 +25°C° 0 mm 2 mps 731 mmHg 73%
    21:00 +25°C° 0 mm 2 mps 731 mmHg 74%
    22:00 +24°C° 0 mm 2 mps 731 mmHg 74%
    23:00 +24°C° 0 mm 2 mps 731 mmHg 73%

    Day after tomorrow, 18 December, Tuesday

    Time Temperature Precipitation Wind Pressure Humidity
    00:00 +24°C° 0 mm 2 mps 731 mmHg 73%
    01:00 +24°C° 0 mm 2 mps 731 mmHg 72%
    02:00 +24°C° 0 mm 2 mps 730 mmHg 71%
    03:00 +23°C° 0 mm 2 mps 730 mmHg 71%
    04:00 +23°C° 0 mm 2 mps 730 mmHg 70%
    05:00 +23°C° 0 mm 2 mps 730 mmHg 70%
    06:00 +23°C° 0 mm 2 mps 730 mmHg 70%
    07:00 +25°C° 0 mm 1 mps 730 mmHg 63%
    08:00 +28°C° 0 mm 1 mps 731 mmHg 56%
    09:00 +28°C° 0 mm 0 mps 732 mmHg 49%
    10:00 +31°C° 0 mm 1 mps 731 mmHg 45%
    11:00 +34°C° 0 mm 2 mps 731 mmHg 42%
    12:00 +35°C° 0 mm 2 mps 730 mmHg 38%
    13:00 +34°C° 0 mm 2 mps 730 mmHg 42%
    14:00 +32°C° 0 mm 2 mps 729 mmHg 46%
    15:00 +31°C° 0 mm 2 mps 728 mmHg 50%
    16:00 +29°C° 0 mm 2 mps 728 mmHg 60%
    17:00 +27°C° 0 mm 1 mps 729 mmHg 69%
    18:00 +25°C° 0 mm 1 mps 729 mmHg 78%
    19:00 +25°C° 0 mm 1 mps 729 mmHg 79%
    20:00 +25°C° 0 mm 1 mps 730 mmHg 80%
    21:00 +24°C° 0 mm 1 mps 730 mmHg 81%
    22:00 +24°C° 0 mm 1 mps 730 mmHg 80%
    23:00 +24°C° 0 mm 1 mps 730 mmHg 79%

    19 December, Wednesday

    Time Temperature Precipitation Wind Pressure Humidity
    00:00 +24°C° 0 mm 1 mps 730 mmHg 79%
    01:00 +24°C° 0 mm 1 mps 730 mmHg 78%
    02:00 +23°C° 0 mm 1 mps 729 mmHg 78%
    03:00 +23°C° 0 mm 1 mps 729 mmHg 77%
    04:00 +23°C° 0 mm 1 mps 729 mmHg 77%
    05:00 +23°C° 0 mm 1 mps 729 mmHg 77%
    06:00 +23°C° 0 mm 1 mps 729 mmHg 77%
    07:00 +25°C° 0 mm 1 mps 730 mmHg 69%
    08:00 +27°C° 0 mm 1 mps 730 mmHg 60%
    09:00 +30°C° 0 mm 1 mps 731 mmHg 51%
    10:00 +31°C° 0 mm 1 mps 730 mmHg 48%
    11:00 +32°C° 0 mm 2 mps 730 mmHg 44%
    12:00 +34°C° 0 mm 2 mps 729 mmHg 40%
    13:00 +34°C° 0 mm 2 mps 728 mmHg 42%
    14:00 +32°C° 0 mm 2 mps 728 mmHg 44%
    15:00 +33°C° 0 mm 3 mps 727 mmHg 46%
    16:00 +30°C° 0 mm 2 mps 727 mmHg 57%
    17:00 +27°C° 0 mm 1 mps 727 mmHg 68%
    18:00 +25°C° 0 mm 1 mps 728 mmHg 79%
    19:00 +25°C° 0 mm 1 mps 728 mmHg 80%
    20:00 +24°C° 0 mm 1 mps 729 mmHg 82%
    21:00 +24°C° 0 mm 1 mps 729 mmHg 83%
    22:00 +23°C° 0 mm 1 mps 729 mmHg 82%
    23:00 +23°C° 0 mm 1 mps 729 mmHg 81%

    20 December, Thursday

    Time Temperature Precipitation Wind Pressure Humidity
    00:00 +23°C° 0 mm 1 mps 729 mmHg 80%
    01:00 +23°C° 0 mm 1 mps 729 mmHg 79%
    02:00 +23°C° 0 mm 1 mps 729 mmHg 78%
    03:00 +22°C° 0 mm 1 mps 728 mmHg 76%
    04:00 +22°C° 0 mm 1 mps 729 mmHg 75%
    05:00 +22°C° 0 mm 1 mps 729 mmHg 73%
    06:00 +22°C° 0 mm 1 mps 729 mmHg 71%
    07:00 +25°C° 0 mm 1 mps 730 mmHg 61%
    08:00 +28°C° 0 mm 1 mps 730 mmHg 50%
    09:00 +28°C° 0 mm 0 mps 731 mmHg 40%
    10:00 +32°C° 0 mm 1 mps 731 mmHg 37%
    11:00 +33°C° 0 mm 1 mps 730 mmHg 34%
    12:00 +35°C° 0 mm 2 mps 730 mmHg 30%
    13:00 +35°C° 0 mm 2 mps 729 mmHg 33%
    14:00 +34°C° 0 mm 2 mps 728 mmHg 35%
    15:00 +32°C° 0 mm 2 mps 727 mmHg 37%
    16:00 +30°C° 0 mm 2 mps 728 mmHg 44%
    17:00 +28°C° 0 mm 1 mps 728 mmHg 52%
    18:00 +26°C° 0 mm 1 mps 728 mmHg 59%
    19:00 +25°C° 0 mm 1 mps 729 mmHg 62%
    20:00 +25°C° 0 mm 2 mps 730 mmHg 66%
    21:00 +25°C° 0 mm 2 mps 730 mmHg 69%
    22:00 +24°C° 0 mm 2 mps 730 mmHg 69%
    23:00 +24°C° 0 mm 2 mps 730 mmHg 70%

    21 December, Friday

    Time Temperature Precipitation Wind Pressure Humidity
    00:00 +24°C° 0 mm 2 mps 730 mmHg 70%
    01:00 +24°C° 0 mm 2 mps 729 mmHg 70%
    02:00 +24°C° 0 mm 2 mps 729 mmHg 70%
    03:00 +24°C° 0 mm 2 mps 729 mmHg 69%
    04:00 +24°C° 0 mm 2 mps 729 mmHg 69%
    05:00 +24°C° 0 mm 2 mps 730 mmHg 68%
    06:00 +24°C° 0 mm 2 mps 730 mmHg 68%
    07:00 +25°C° 0 mm 3 mps 731 mmHg 62%
    08:00 +27°C° 0 mm 3 mps 731 mmHg 57%
    09:00 +29°C° 0 mm 3 mps 732 mmHg 51%
    10:00 +30°C° 0 mm 3 mps 732 mmHg 47%
    11:00 +31°C° 0 mm 3 mps 731 mmHg 43%
    12:00 +34°C° 0 mm 3 mps 731 mmHg 39%
    13:00 +33°C° 0 mm 3 mps 730 mmHg 40%
    14:00 +33°C° 0 mm 3 mps 730 mmHg 40%
    15:00 +33°C° 0 mm 3 mps 729 mmHg 41%
    16:00 +30°C° 0 mm 2 mps 730 mmHg 48%
    17:00 +27°C° 0 mm 2 mps 730 mmHg 54%
    18:00 +25°C° 0 mm 2 mps 730 mmHg 61%
    19:00 +25°C° 0 mm 2 mps 731 mmHg 61%
    20:00 +24°C° 0 mm 2 mps 731 mmHg 62%
    21:00 +23°C° 0 mm 2 mps 732 mmHg 62%
    22:00 +22°C° 0 mm 3 mps 732 mmHg 62%
    23:00 +21°C° 0 mm 3 mps 732 mmHg 61%
    Show more